Time,TemperatureF,DewpointF,PressureIn,WindDirection,WindDirectionDegrees,WindSpeedMPH,WindSpeedGustMPH,Humidity,HourlyPrecipIn,Conditions,Clouds,dailyrainin,SoftwareType,DateUTC
2013-02-08 00:00:00,37.8,36.2,30.05,NE,40,3.5,4.2,94,0.03,RA,,0.00,WeatherDisplay:10.37,2013-02-08 05:00:00,
2013-02-08 00:01:00,37.8,36.2,30.04,NNE,24,3.5,3.9,94,0.03,RA,,0.00,WeatherDisplay:10.37,2013-02-08 05:01:00,
2013-02-08 00:06:00,37.8,36.2,30.05,NE,42,3.5,7.0,94,0.05,RA,,0.00,WeatherDisplay:10.37,2013-02-08 05:06:00,
2013-02-08 00:11:00,37.8,36.2,30.04,NNE,15,11.5,11.5,94,0.04,RA,,0.01,WeatherDisplay:10.37,2013-02-08 05:11:00,
2013-02-08 00:16:00,37.8,36.2,30.04,NNE,25,7.0,7.0,94,0.04,CLR,,0.00,WeatherDisplay:10.37,2013-02-08 05:16:00,
2013-02-08 00:21:00,37.8,36.2,30.04,NNE,21,5.8,5.8,94,0.04,CLR,,0.00,WeatherDisplay:10.37,2013-02-08 05:21:00,
2013-02-08 00:26:00,37.8,36.2,30.04,NE,48,9.2,9.2,94,0.03,CLR,,0.00,WeatherDisplay:10.37,2013-02-08 05:26:00,
2013-02-08 00:31:00,37.8,36.2,30.04,NNE,15,4.6,6.1,94,0.02,CLR,,0.01,WeatherDisplay:10.37,2013-02-08 05:31:00,
2013-02-08 00:36:00,37.8,36.2,30.03,NE,46,10.0,10.0,94,0.04,RA,,0.01,WeatherDisplay:10.37,2013-02-08 05:36:00,
2013-02-08 00:41:00,37.8,36.2,30.03,NNE,14,10.4,10.4,94,0.04,,,0.01,WeatherDisplay:10.37,2013-02-08 05:41:00,
2013-02-08 00:46:00,37.8,36.2,30.04,NNE,15,4.6,6.1,94,0.01,CLR,,0.01,WeatherDisplay:10.37,2013-02-08 05:46:00,
2013-02-08 00:51:00,37.8,36.2,30.03,NE,34,3.5,3.9,94,0.02,CLR,,0.01,WeatherDisplay:10.37,2013-02-08 05:51:00,
2013-02-08 00:56:00,37.7,36.1,30.02,NE,42,11.5,11.5,94,0.02,CLR,,0.01,WeatherDisplay:10.37,2013-02-08 05:56:00,
2013-02-08 01:01:00,37.8,36.2,30.02,NNE,28,5.8,6.0,94,0.02,RA,,0.02,WeatherDisplay:10.37,2013-02-08 06:01:00,
2013-02-08 01:06:00,37.7,36.1,30.01,NNE,33,5.8,6.1,94,0.02,CLR,,0.02,WeatherDisplay:10.37,2013-02-08 06:06:00,
2013-02-08 01:11:00,37.7,36.1,30.00,NE,55,11.5,11.5,94,0.02,RA,,0.03,WeatherDisplay:10.37,2013-02-08 06:11:00,
2013-02-08 01:16:00,37.7,36.1,30.00,NE,46,10.4,10.4,94,0.02,RA,,0.03,WeatherDisplay:10.37,2013-02-08 06:16:00,
2013-02-08 01:21:00,37.7,36.1,30.00,NE,35,12.7,12.7,94,0.02,,,0.03,WeatherDisplay:10.37,2013-02-08 06:21:00,
2013-02-08 01:26:00,37.7,36.1,30.01,NE,44,7.0,7.0,94,0.01,CLR,,0.02,WeatherDisplay:10.37,2013-02-08 06:26:00,
2013-02-08 01:31:00,37.7,36.1,30.00,NE,40,9.2,9.2,94,0.01,RA,,0.02,WeatherDisplay:10.37,2013-02-08 06:31:00,
2013-02-08 01:36:00,37.7,36.1,30.00,NE,44,3.5,4.0,94,0.01,RA,,0.02,WeatherDisplay:10.37,2013-02-08 06:36:00,
2013-02-08 01:41:00,37.7,36.1,29.99,NNE,17,5.8,5.8,94,0.01,CLR,,0.02,WeatherDisplay:10.37,2013-02-08 06:41:00,
2013-02-08 01:46:00,37.7,36.1,29.99,NNE,33,10.4,10.4,94,0.01,CLR,,0.02,WeatherDisplay:10.37,2013-02-08 06:46:00,
2013-02-08 01:51:00,37.7,36.1,29.99,North,5,7.0,7.0,94,0.01,CLR,,0.02,WeatherDisplay:10.37,2013-02-08 06:51:00,
2013-02-08 01:56:00,37.7,36.1,30.00,NE,40,5.8,5.8,94,0.01,CLR,,0.03,WeatherDisplay:10.37,2013-02-08 06:56:00,
2013-02-08 02:01:00,37.8,36.2,29.99,North,9,5.8,5.8,94,0.01,CLR,,0.02,WeatherDisplay:10.37,2013-02-08 07:01:00,
2013-02-08 02:06:00,37.7,36.1,29.98,NE,38,8.0,8.0,94,0.01,CLR,,0.02,WeatherDisplay:10.37,2013-02-08 07:06:00,
2013-02-08 02:11:00,37.7,36.1,30.00,NE,40,5.8,5.8,94,0.00,CLR,,0.03,WeatherDisplay:10.37,2013-02-08 07:11:00,
2013-02-08 02:16:00,37.8,36.2,29.97,NE,46,6.9,6.9,94,0.01,CLR,,0.02,WeatherDisplay:10.37,2013-02-08 07:16:00,
2013-02-08 02:21:00,37.7,36.1,30.00,NE,40,5.8,5.8,94,0.00,CLR,,0.03,WeatherDisplay:10.37,2013-02-08 07:21:00,
2013-02-08 02:26:00,37.9,36.3,29.96,NE,46,10.4,10.4,94,0.01,CLR,,0.02,WeatherDisplay:10.37,2013-02-08 07:26:00,
2013-02-08 02:31:00,37.7,36.1,30.00,NE,40,5.8,5.8,94,0.00,CLR,,0.03,WeatherDisplay:10.37,2013-02-08 07:31:00,
2013-02-08 02:36:00,37.7,36.1,30.00,NE,40,5.8,5.8,94,0.00,CLR,,0.03,WeatherDisplay:10.37,2013-02-08 07:36:00,
2013-02-08 02:41:00,37.9,36.3,29.96,NE,48,15.0,15.0,94,0.00,CLR,,0.02,WeatherDisplay:10.37,2013-02-08 07:41:00,
2013-02-08 02:46:00,37.9,36.3,29.96,North,360,11.5,11.5,94,0.00,CLR,,0.02,WeatherDisplay:10.37,2013-02-08 07:46:00,
2013-02-08 02:51:00,37.9,36.3,29.96,ENE,71,9.2,9.2,94,0.00,CLR,,0.02,WeatherDisplay:10.37,2013-02-08 07:51:00,
2013-02-08 02:56:00,37.9,36.3,29.96,NE,37,11.5,11.5,94,0.00,CLR,,0.02,WeatherDisplay:10.37,2013-02-08 07:56:00,
2013-02-08 03:01:00,37.9,36.3,29.96,NE,37,9.2,9.2,94,0.00,CLR,,0.02,WeatherDisplay:10.37,2013-02-08 08:01:00,
2013-02-08 03:06:00,37.9,36.3,29.96,NE,37,9.2,9.2,94,0.00,CLR,,0.02,WeatherDisplay:10.37,2013-02-08 08:06:00,
2013-02-08 03:11:00,37.9,36.3,29.96,NNE,30,9.0,9.0,94,0.00,CLR,,0.03,WeatherDisplay:10.37,2013-02-08 08:11:00,
2013-02-08 03:16:00,38.0,36.4,29.96,NNE,26,5.8,5.8,94,0.00,CLR,,0.03,WeatherDisplay:10.37,2013-02-08 08:16:00,
2013-02-08 03:21:00,37.9,36.3,29.96,NE,37,9.2,9.2,94,0.00,CLR,,0.02,WeatherDisplay:10.37,2013-02-08 08:21:00,
2013-02-08 03:26:00,38.0,36.4,29.96,NE,36,6.9,6.9,94,0.00,CLR,,0.03,WeatherDisplay:10.37,2013-02-08 08:26:00,
2013-02-08 03:31:00,38.0,36.4,29.96,North,10,1.2,0.0,94,0.00,CLR,,0.03,WeatherDisplay:10.37,2013-02-08 08:31:00,
2013-02-08 03:36:00,38.1,36.5,29.96,NNE,19,7.0,7.0,94,0.00,CLR,,0.02,WeatherDisplay:10.37,2013-02-08 08:36:00,
2013-02-08 03:41:00,38.2,36.6,29.96,NNW,340,5.8,5.8,94,0.00,CLR,,0.02,WeatherDisplay:10.37,2013-02-08 08:41:00,
2013-02-08 03:46:00,38.2,36.6,29.96,NNE,32,3.5,3.5,94,0.00,CLR,,0.02,WeatherDisplay:10.37,2013-02-08 08:46:00,
2013-02-08 03:51:00,38.3,36.7,29.96,NE,45,11.5,11.5,94,0.00,CLR,,0.02,WeatherDisplay:10.37,2013-02-08 08:51:00,
2013-02-08 03:56:00,38.3,36.7,29.96,NNE,26,3.5,4.0,94,0.00,CLR,,0.02,WeatherDisplay:10.37,2013-02-08 08:56:00,
2013-02-08 04:01:00,38.4,36.8,29.96,NE,45,3.5,0.0,94,0.00,CLR,,0.03,WeatherDisplay:10.37,2013-02-08 09:01:00,
2013-02-08 04:06:00,38.5,36.9,29.96,North,360,6.0,6.0,94,0.00,CLR,,0.02,WeatherDisplay:10.37,2013-02-08 09:06:00,
2013-02-08 04:11:00,38.6,37.0,29.96,NNE,27,3.0,3.0,94,0.00,CLR,,0.03,WeatherDisplay:10.37,2013-02-08 09:11:00,
2013-02-08 04:16:00,38.5,36.9,29.96,North,351,0.0,0.5,94,0.00,CLR,,0.02,WeatherDisplay:10.37,2013-02-08 09:16:00,
2013-02-08 04:21:00,38.7,36.9,29.96,North,5,5.8,5.8,93,0.00,CLR,,0.02,WeatherDisplay:10.37,2013-02-08 09:21:00,
2013-02-08 04:26:00,38.7,36.9,29.96,NNW,342,0.0,0.0,93,0.00,CLR,,0.02,WeatherDisplay:10.37,2013-02-08 09:26:00,
2013-02-08 04:31:00,38.6,36.8,29.96,NNE,22,3.5,3.5,93,0.00,CLR,,0.03,WeatherDisplay:10.37,2013-02-08 09:31:00,
2013-02-08 04:36:00,38.8,36.9,29.97,NNW,340,2.3,2.3,93,0.00,CLR,,0.02,WeatherDisplay:10.37,2013-02-08 09:36:00,
2013-02-08 04:41:00,38.8,36.9,29.97,NNW,340,2.3,2.3,93,0.00,CLR,,0.02,WeatherDisplay:10.37,2013-02-08 09:41:00,
2013-02-08 04:46:00,38.8,36.9,29.97,NNW,340,2.3,2.3,93,0.00,CLR,,0.02,WeatherDisplay:10.37,2013-02-08 09:46:00,
2013-02-08 04:51:00,39.0,37.1,29.96,North,360,0.0,0.0,93,0.00,CLR,,0.03,WeatherDisplay:10.37,2013-02-08 09:51:00,
2013-02-08 04:56:00,38.8,36.9,29.97,NNW,340,2.3,2.3,93,0.00,CLR,,0.02,WeatherDisplay:10.37,2013-02-08 09:56:00,
2013-02-08 05:01:00,39.1,37.2,29.95,NNE,20,0.0,0.0,93,0.00,CLR,,0.03,WeatherDisplay:10.37,2013-02-08 10:01:00,
2013-02-08 05:06:00,39.1,37.2,29.95,NNE,18,3.5,3.5,93,0.00,CLR,,0.03,WeatherDisplay:10.37,2013-02-08 10:06:00,
2013-02-08 05:11:00,39.1,37.2,29.95,NNE,18,3.5,3.5,93,0.00,CLR,,0.03,WeatherDisplay:10.37,2013-02-08 10:11:00,
2013-02-08 05:16:00,39.1,37.2,29.95,NNE,18,3.5,3.5,93,0.00,CLR,,0.03,WeatherDisplay:10.37,2013-02-08 10:16:00,
2013-02-08 05:21:00,39.2,37.3,29.95,North,5,0.0,0.0,93,0.00,CLR,,0.02,WeatherDisplay:10.37,2013-02-08 10:21:00,
2013-02-08 05:26:00,39.2,37.3,29.95,North,5,0.0,0.0,93,0.00,CLR,,0.02,WeatherDisplay:10.37,2013-02-08 10:26:00,
2013-02-08 05:31:00,39.2,37.3,29.95,North,360,0.0,0.0,93,0.00,CLR,,0.02,WeatherDisplay:10.37,2013-02-08 10:31:00,
2013-02-08 05:36:00,39.1,37.2,29.95,NNE,18,3.5,3.5,93,0.00,CLR,,0.03,WeatherDisplay:10.37,2013-02-08 10:36:00,
2013-02-08 05:41:00,39.1,37.2,29.95,NNE,18,3.5,3.5,93,0.00,CLR,,0.03,WeatherDisplay:10.37,2013-02-08 10:41:00,
2013-02-08 05:46:00,39.1,37.2,29.95,NNE,18,3.5,3.5,93,0.00,CLR,,0.03,WeatherDisplay:10.37,2013-02-08 10:46:00,
2013-02-08 05:51:00,39.1,37.2,29.95,North,360,3.5,0.0,93,0.00,CLR,,0.02,WeatherDisplay:10.37,2013-02-08 10:51:00,
2013-02-08 05:56:00,39.1,37.2,29.95,NNE,18,3.5,3.5,93,0.00,CLR,,0.03,WeatherDisplay:10.37,2013-02-08 10:56:00,
2013-02-08 06:01:00,39.2,37.3,29.95,North,360,0.0,0.0,93,0.00,CLR,,0.03,WeatherDisplay:10.37,2013-02-08 11:01:00,
2013-02-08 06:06:00,39.2,37.3,29.95,North,9,0.0,0.0,93,0.00,CLR,,0.02,WeatherDisplay:10.37,2013-02-08 11:06:00,
2013-02-08 06:11:00,39.2,37.3,29.95,North,10,0.0,0.0,93,0.00,CLR,,0.03,WeatherDisplay:10.37,2013-02-08 11:11:00,
2013-02-08 06:16:00,39.2,37.3,29.94,NE,34,3.5,3.5,93,0.00,CLR,,0.03,WeatherDisplay:10.37,2013-02-08 11:16:00,
2013-02-08 06:21:00,39.2,37.3,29.95,North,9,0.0,0.0,93,0.00,CLR,,0.02,WeatherDisplay:10.37,2013-02-08 11:21:00,
2013-02-08 06:26:00,39.1,37.2,29.95,North,9,0.0,0.0,93,0.00,CLR,,0.03,WeatherDisplay:10.37,2013-02-08 11:26:00,
2013-02-08 06:31:00,39.1,37.2,29.95,North,9,0.0,0.0,93,0.00,CLR,,0.03,WeatherDisplay:10.37,2013-02-08 11:31:00,
2013-02-08 06:36:00,39.2,37.3,29.95,North,9,0.0,0.0,93,0.00,CLR,,0.02,WeatherDisplay:10.37,2013-02-08 11:36:00,
2013-02-08 06:41:00,39.1,37.2,29.95,North,9,0.0,0.0,93,0.00,CLR,,0.02,WeatherDisplay:10.37,2013-02-08 11:41:00,
2013-02-08 06:46:00,39.0,37.1,29.95,North,9,0.0,0.0,93,0.00,CLR,,0.03,WeatherDisplay:10.37,2013-02-08 11:46:00,
2013-02-08 06:51:00,39.0,37.1,29.95,North,9,0.0,0.0,93,0.00,CLR,,0.02,WeatherDisplay:10.37,2013-02-08 11:51:00,
2013-02-08 06:56:00,39.0,37.1,29.95,North,9,0.0,0.0,93,0.00,CLR,,0.02,WeatherDisplay:10.37,2013-02-08 11:56:00,
2013-02-08 07:01:00,38.9,37.0,29.94,North,9,0.0,0.0,93,0.00,CLR,,0.03,WeatherDisplay:10.37,2013-02-08 12:01:00,
2013-02-08 07:06:00,39.0,37.1,29.95,North,9,0.0,0.0,93,0.00,CLR,,0.02,WeatherDisplay:10.37,2013-02-08 12:06:00,
2013-02-08 07:11:00,39.0,37.1,29.95,North,9,0.0,0.0,93,0.00,CLR,,0.02,WeatherDisplay:10.37,2013-02-08 12:11:00,
2013-02-08 07:16:00,38.8,36.9,29.94,North,9,0.0,0.0,93,0.00,CLR,,0.03,WeatherDisplay:10.37,2013-02-08 12:16:00,
2013-02-08 07:21:00,38.8,36.9,29.94,North,9,0.0,0.0,93,0.00,CLR,,0.02,WeatherDisplay:10.37,2013-02-08 12:21:00,
2013-02-08 07:26:00,38.8,36.9,29.94,North,9,0.0,0.0,93,0.00,CLR,,0.03,WeatherDisplay:10.37,2013-02-08 12:26:00,
2013-02-08 07:31:00,38.8,36.9,29.94,North,9,0.0,0.0,93,0.00,CLR,,0.03,WeatherDisplay:10.37,2013-02-08 12:31:00,
2013-02-08 07:36:00,38.8,36.9,29.94,North,9,0.0,0.0,93,0.00,CLR,,0.03,WeatherDisplay:10.37,2013-02-08 12:36:00,
2013-02-08 07:41:00,38.8,36.9,29.94,North,9,0.0,0.0,93,0.00,CLR,,0.03,WeatherDisplay:10.37,2013-02-08 12:41:00,
2013-02-08 07:46:00,38.8,36.9,29.94,North,9,0.0,0.0,93,0.00,CLR,,0.03,WeatherDisplay:10.37,2013-02-08 12:46:00,
2013-02-08 07:51:00,38.2,36.4,29.96,WNW,295,0.0,0.0,93,0.00,CLR,,0.02,WeatherDisplay:10.37,2013-02-08 12:51:00,
2013-02-08 07:56:00,38.8,36.9,29.94,North,9,0.0,0.0,93,0.00,CLR,,0.03,WeatherDisplay:10.37,2013-02-08 12:56:00,
2013-02-08 08:01:00,37.9,36.1,29.96,WNW,295,0.0,0.0,93,0.00,CLR,,0.02,WeatherDisplay:10.37,2013-02-08 13:01:00,
2013-02-08 08:06:00,37.9,36.1,29.96,WNW,295,0.0,0.0,93,0.00,CLR,,0.02,WeatherDisplay:10.37,2013-02-08 13:06:00,
2013-02-08 08:11:00,38.8,36.9,29.94,North,9,0.0,0.0,93,0.00,CLR,,0.03,WeatherDisplay:10.37,2013-02-08 13:11:00,
2013-02-08 08:16:00,38.8,36.9,29.94,North,9,0.0,0.0,93,0.00,CLR,,0.03,WeatherDisplay:10.37,2013-02-08 13:16:00,
2013-02-08 08:21:00,38.8,37.2,29.97,WNW,295,0.0,0.0,94,0.00,CLR,,0.02,WeatherDisplay:10.37,2013-02-08 13:21:00,
2013-02-08 08:26:00,38.8,36.9,29.94,North,9,0.0,0.0,93,0.00,CLR,,0.03,WeatherDisplay:10.37,2013-02-08 13:26:00,
2013-02-08 08:31:00,39.8,38.2,29.96,NW,326,0.0,0.0,94,0.00,CLR,,0.02,WeatherDisplay:10.37,2013-02-08 13:31:00,
2013-02-08 08:36:00,40.2,38.6,29.96,North,11,3.5,3.5,94,0.00,CLR,,0.02,WeatherDisplay:10.37,2013-02-08 13:36:00,
2013-02-08 08:42:00,40.7,39.1,29.96,NNE,19,4.0,4.0,94,0.00,CLR,,0.03,WeatherDisplay:10.37,2013-02-08 13:42:00,
2013-02-08 08:47:00,40.2,38.6,29.96,North,11,2.3,2.3,94,0.00,CLR,,0.02,WeatherDisplay:10.37,2013-02-08 13:47:00,
2013-02-08 08:52:00,40.2,38.6,29.96,North,11,2.3,2.3,94,0.00,CLR,,0.02,WeatherDisplay:10.37,2013-02-08 13:52:00,
2013-02-08 08:57:00,40.2,38.6,29.96,North,11,2.3,2.3,94,0.00,CLR,,0.02,WeatherDisplay:10.37,2013-02-08 13:57:00,
2013-02-08 09:02:00,40.2,38.6,29.96,North,11,2.3,2.3,94,0.00,CLR,,0.02,WeatherDisplay:10.37,2013-02-08 14:02:00,
2013-02-08 09:07:00,40.2,38.6,29.96,North,11,2.3,2.3,94,0.00,CLR,,0.02,WeatherDisplay:10.37,2013-02-08 14:07:00,
2013-02-08 09:12:00,43.2,40.8,29.95,NNW,337,0.0,0.0,91,0.00,CLR,,0.02,WeatherDisplay:10.37,2013-02-08 14:12:00,
2013-02-08 09:17:00,43.7,41.2,29.96,NW,323,3.5,0.0,91,0.00,CLR,,0.02,WeatherDisplay:10.37,2013-02-08 14:17:00,
2013-02-08 09:22:00,42.9,40.7,29.96,NNW,337,0.0,0.0,92,0.00,CLR,,0.03,WeatherDisplay:10.37,2013-02-08 14:22:00,
2013-02-08 09:27:00,44.4,41.4,29.96,NNW,330,3.5,3.5,89,0.00,CLR,,0.02,WeatherDisplay:10.37,2013-02-08 14:27:00,
2013-02-08 09:32:00,45.0,41.7,29.97,West,269,4.6,4.6,88,0.00,CLR,,0.02,WeatherDisplay:10.37,2013-02-08 14:32:00,
2013-02-08 09:37:00,42.9,40.7,29.96,NNW,337,0.0,0.0,92,0.00,CLR,,0.03,WeatherDisplay:10.37,2013-02-08 14:37:00,
2013-02-08 09:42:00,42.9,40.7,29.96,NNW,337,0.0,0.0,92,0.00,CLR,,0.03,WeatherDisplay:10.37,2013-02-08 14:42:00,
2013-02-08 09:47:00,42.9,40.7,29.96,NNW,337,0.0,0.0,92,0.00,CLR,,0.03,WeatherDisplay:10.37,2013-02-08 14:47:00,
2013-02-08 09:52:00,46.3,42.0,29.96,NE,42,0.0,0.0,85,0.00,CLR,,0.02,WeatherDisplay:10.37,2013-02-08 14:52:00,
2013-02-08 09:57:00,46.7,41.8,29.96,WNW,299,3.5,3.5,83,0.00,CLR,,0.02,WeatherDisplay:10.37,2013-02-08 14:57:00,
2013-02-08 10:02:00,47.2,42.0,29.96,NW,319,0.0,0.0,82,0.00,CLR,,0.02,WeatherDisplay:10.37,2013-02-08 15:02:00,
2013-02-08 10:07:00,42.9,40.7,29.96,NNW,337,0.0,0.0,92,0.00,CLR,,0.03,WeatherDisplay:10.37,2013-02-08 15:07:00,
2013-02-08 10:12:00,48.2,43.0,29.95,SW,214,5.8,5.8,82,0.00,CLR,,0.02,WeatherDisplay:10.37,2013-02-08 15:12:00,
2013-02-08 10:17:00,48.5,43.3,29.95,SSW,196,2.3,2.3,82,0.00,CLR,,0.03,WeatherDisplay:10.37,2013-02-08 15:17:00,
2013-02-08 10:22:00,48.6,42.7,29.95,SSW,208,3.5,3.5,80,0.00,CLR,,0.02,WeatherDisplay:10.37,2013-02-08 15:22:00,
2013-02-08 10:27:00,48.5,43.3,29.95,SSW,196,0.0,0.0,82,0.00,CLR,,0.03,WeatherDisplay:10.37,2013-02-08 15:27:00,
2013-02-08 10:32:00,49.2,43.6,29.95,WNW,295,4.0,4.0,81,0.00,CLR,,0.02,WeatherDisplay:10.37,2013-02-08 15:32:00,
2013-02-08 10:37:00,48.5,43.3,29.95,SSW,196,0.0,0.0,82,0.00,CLR,,0.03,WeatherDisplay:10.37,2013-02-08 15:37:00,
2013-02-08 10:42:00,49.0,43.4,29.96,WNW,282,5.8,5.8,81,0.00,CLR,,0.02,WeatherDisplay:10.37,2013-02-08 15:42:00,
2013-02-08 10:47:00,48.7,43.1,29.96,WSW,254,9.2,9.2,81,0.00,CLR,,0.02,WeatherDisplay:10.37,2013-02-08 15:47:00,
2013-02-08 10:52:00,48.5,43.3,29.95,SSW,196,0.0,0.0,82,0.00,CLR,,0.03,WeatherDisplay:10.37,2013-02-08 15:52:00,
2013-02-08 10:57:00,48.2,42.6,29.96,SW,227,4.6,4.6,81,0.00,CLR,,0.02,WeatherDisplay:10.37,2013-02-08 15:57:00,
2013-02-08 11:02:00,48.5,43.3,29.95,SSW,196,0.0,0.0,82,0.00,CLR,,0.03,WeatherDisplay:10.37,2013-02-08 16:02:00,
2013-02-08 11:07:00,48.5,43.3,29.95,SSW,196,0.0,0.0,82,0.00,CLR,,0.03,WeatherDisplay:10.37,2013-02-08 16:07:00,
2013-02-08 11:12:00,48.1,43.2,29.96,WSW,244,9.2,9.2,83,0.00,CLR,,0.02,WeatherDisplay:10.37,2013-02-08 16:12:00,
2013-02-08 11:17:00,48.5,43.3,29.95,SSW,196,0.0,0.0,82,0.00,CLR,,0.03,WeatherDisplay:10.37,2013-02-08 16:17:00,
2013-02-08 11:22:00,48.0,42.8,29.95,West,269,9.2,9.2,82,0.00,CLR,,0.02,WeatherDisplay:10.37,2013-02-08 16:22:00,
2013-02-08 11:27:00,48.5,43.3,29.95,SSW,196,0.0,0.0,82,0.00,CLR,,0.03,WeatherDisplay:10.37,2013-02-08 16:27:00,
2013-02-08 11:32:00,48.5,43.3,29.95,SSW,196,0.0,0.0,82,0.00,CLR,,0.03,WeatherDisplay:10.37,2013-02-08 16:32:00,
2013-02-08 11:37:00,48.5,43.3,29.95,SSW,196,0.0,0.0,82,0.00,CLR,,0.03,WeatherDisplay:10.37,2013-02-08 16:37:00,
2013-02-08 11:42:00,49.6,44.3,29.93,WSW,250,12.7,12.7,82,0.00,CLR,,0.02,WeatherDisplay:10.37,2013-02-08 16:42:00,
2013-02-08 11:47:00,49.7,43.8,29.93,WSW,242,11.5,11.5,80,0.00,CLR,,0.02,WeatherDisplay:10.37,2013-02-08 16:47:00,
2013-02-08 11:52:00,49.7,43.8,29.93,WSW,242,11.5,11.5,80,0.00,CLR,,0.02,WeatherDisplay:10.37,2013-02-08 16:52:00,
2013-02-08 11:57:00,50.6,44.3,29.93,West,269,16.1,16.1,79,0.00,CLR,,0.02,WeatherDisplay:10.37,2013-02-08 16:57:00,
2013-02-08 12:02:00,51.4,45.8,29.92,WSW,241,11.0,11.0,81,0.00,CLR,,0.03,WeatherDisplay:10.37,2013-02-08 17:02:00,
2013-02-08 12:07:00,50.6,44.3,29.93,West,269,9.2,13.3,79,0.00,CLR,,0.02,WeatherDisplay:10.37,2013-02-08 17:07:00,
2013-02-08 12:12:00,52.0,45.0,29.92,West,265,11.5,11.5,77,0.00,CLR,,0.03,WeatherDisplay:10.37,2013-02-08 17:12:00,
2013-02-08 12:17:00,52.3,46.0,29.92,SW,217,17.3,17.3,79,0.00,CLR,,0.02,WeatherDisplay:10.37,2013-02-08 17:17:00,
2013-02-08 12:22:00,52.0,45.0,29.92,West,265,9.2,10.9,77,0.00,CLR,,0.03,WeatherDisplay:10.37,2013-02-08 17:22:00,
2013-02-08 12:27:00,52.0,45.0,29.92,West,265,9.2,10.9,77,0.00,CLR,,0.03,WeatherDisplay:10.37,2013-02-08 17:27:00,
2013-02-08 12:32:00,53.5,46.1,29.91,West,261,13.8,13.8,76,0.00,CLR,,0.03,WeatherDisplay:10.37,2013-02-08 17:32:00,
2013-02-08 12:37:00,53.7,46.3,29.91,West,263,12.7,12.7,76,0.00,CLR,,0.02,WeatherDisplay:10.37,2013-02-08 17:37:00,
2013-02-08 12:42:00,53.6,46.6,29.91,WSW,244,10.4,10.4,77,0.00,CLR,,0.03,WeatherDisplay:10.37,2013-02-08 17:42:00,
2013-02-08 12:47:00,53.6,46.6,29.91,WSW,244,10.4,10.4,77,0.00,CLR,,0.03,WeatherDisplay:10.37,2013-02-08 17:47:00,
2013-02-08 12:52:00,54.1,46.3,29.91,West,263,19.6,19.6,75,0.00,CLR,,0.02,WeatherDisplay:10.37,2013-02-08 17:52:00,
2013-02-08 12:57:00,53.6,46.6,29.91,WSW,244,10.4,10.4,77,0.00,CLR,,0.03,WeatherDisplay:10.37,2013-02-08 17:57:00,
2013-02-08 13:02:00,53.6,46.6,29.91,WSW,244,10.4,10.4,77,0.00,CLR,,0.03,WeatherDisplay:10.37,2013-02-08 18:02:00,
2013-02-08 13:07:00,54.5,47.1,29.91,SW,225,11.5,11.5,76,0.00,CLR,,0.02,WeatherDisplay:10.37,2013-02-08 18:07:00,
2013-02-08 13:12:00,55.2,47.4,29.90,West,263,15.0,15.0,75,0.00,CLR,,0.03,WeatherDisplay:10.37,2013-02-08 18:12:00,
2013-02-08 13:17:00,55.4,46.9,29.90,WSW,243,13.8,13.8,73,0.00,CLR,,0.03,WeatherDisplay:10.37,2013-02-08 18:17:00,
2013-02-08 13:22:00,55.3,47.2,29.90,SW,227,11.5,11.5,74,0.00,CLR,,0.03,WeatherDisplay:10.37,2013-02-08 18:22:00,
2013-02-08 13:28:00,54.5,47.1,29.91,SW,225,11.5,11.5,76,0.00,CLR,,0.02,WeatherDisplay:10.37,2013-02-08 18:28:00,
2013-02-08 13:33:00,54.5,47.1,29.91,SW,225,11.5,11.5,76,0.00,CLR,,0.02,WeatherDisplay:10.37,2013-02-08 18:33:00,
2013-02-08 13:39:00,56.0,48.2,29.90,WSW,256,11.5,11.5,75,0.00,CLR,,0.03,WeatherDisplay:10.37,2013-02-08 18:39:00,
2013-02-08 13:44:00,56.3,47.8,29.90,WSW,257,12.7,12.7,73,0.00,CLR,,0.03,WeatherDisplay:10.37,2013-02-08 18:44:00,
2013-02-08 13:49:00,54.5,47.1,29.91,SW,225,11.5,11.5,76,0.00,CLR,,0.02,WeatherDisplay:10.37,2013-02-08 18:49:00,
2013-02-08 13:54:00,54.5,47.1,29.91,SW,225,11.5,11.5,76,0.00,CLR,,0.02,WeatherDisplay:10.37,2013-02-08 18:54:00,
2013-02-08 13:59:00,55.5,47.0,29.90,SW,236,11.5,11.5,73,0.00,CLR,,0.02,WeatherDisplay:10.37,2013-02-08 18:59:00,
2013-02-08 14:04:00,55.4,47.6,29.89,West,261,7.0,7.0,75,0.00,CLR,,0.02,WeatherDisplay:10.37,2013-02-08 19:04:00,
2013-02-08 14:09:00,55.4,47.2,29.89,West,274,6.9,6.9,74,0.00,CLR,,0.02,WeatherDisplay:10.37,2013-02-08 19:09:00,
2013-02-08 14:14:00,55.7,47.2,29.90,WNW,286,11.5,11.5,73,0.00,CLR,,0.02,WeatherDisplay:10.37,2013-02-08 19:14:00,
2013-02-08 14:19:00,55.9,46.6,29.89,WNW,298,11.5,11.5,71,0.00,CLR,,0.02,WeatherDisplay:10.37,2013-02-08 19:19:00,
2013-02-08 14:24:00,56.1,46.8,29.90,West,275,10.4,10.4,71,0.00,CLR,,0.03,WeatherDisplay:10.37,2013-02-08 19:24:00,
2013-02-08 14:29:00,56.1,46.8,29.90,West,275,10.4,10.4,71,0.00,CLR,,0.03,WeatherDisplay:10.37,2013-02-08 19:29:00,
2013-02-08 14:34:00,56.1,46.8,29.90,West,275,10.4,10.4,71,0.00,CLR,,0.03,WeatherDisplay:10.37,2013-02-08 19:34:00,
2013-02-08 14:39:00,56.4,45.6,29.89,NW,325,15.0,15.0,67,0.00,CLR,,0.02,WeatherDisplay:10.37,2013-02-08 19:39:00,
2013-02-08 14:44:00,56.4,45.2,29.89,NW,307,19.6,19.6,66,0.00,CLR,,0.02,WeatherDisplay:10.37,2013-02-08 19:44:00,
2013-02-08 14:49:00,56.1,46.8,29.90,West,275,10.4,10.4,71,0.00,CLR,,0.03,WeatherDisplay:10.37,2013-02-08 19:49:00,
2013-02-08 14:54:00,56.6,46.2,29.90,WNW,294,11.5,11.5,68,0.00,CLR,,0.02,WeatherDisplay:10.37,2013-02-08 19:54:00,
2013-02-08 14:59:00,56.7,45.5,29.89,WNW,292,10.4,10.7,66,0.00,CLR,,0.02,WeatherDisplay:10.37,2013-02-08 19:59:00,
2013-02-08 15:04:00,56.7,45.5,29.89,WNW,292,10.4,10.7,66,0.00,CLR,,0.02,WeatherDisplay:10.37,2013-02-08 20:04:00,
2013-02-08 15:09:00,57.1,45.0,29.89,WNW,296,19.6,19.6,64,0.00,CLR,,0.02,WeatherDisplay:10.37,2013-02-08 20:09:00,
2013-02-08 15:14:00,57.0,45.3,29.90,WNW,290,11.5,11.5,65,0.00,CLR,,0.02,WeatherDisplay:10.37,2013-02-08 20:14:00,
2013-02-08 15:19:00,57.0,45.3,29.90,WNW,290,11.5,11.5,65,0.00,CLR,,0.02,WeatherDisplay:10.37,2013-02-08 20:19:00,
2013-02-08 15:24:00,57.0,45.3,29.90,WNW,290,11.5,11.5,65,0.00,CLR,,0.02,WeatherDisplay:10.37,2013-02-08 20:24:00,
2013-02-08 15:29:00,57.0,45.3,29.90,WNW,290,11.5,11.5,65,0.00,CLR,,0.02,WeatherDisplay:10.37,2013-02-08 20:29:00,
2013-02-08 15:34:00,57.5,44.1,29.90,NW,306,5.8,5.8,61,0.00,CLR,,0.03,WeatherDisplay:10.37,2013-02-08 20:34:00,
2013-02-08 15:39:00,57.0,45.3,29.90,WNW,290,11.5,11.5,65,0.00,CLR,,0.02,WeatherDisplay:10.37,2013-02-08 20:39:00,
2013-02-08 15:44:00,57.0,45.3,29.90,WNW,290,11.5,11.5,65,0.00,CLR,,0.02,WeatherDisplay:10.37,2013-02-08 20:44:00,
2013-02-08 15:49:00,57.0,45.3,29.90,WNW,290,11.5,11.5,65,0.00,CLR,,0.02,WeatherDisplay:10.37,2013-02-08 20:49:00,
2013-02-08 15:54:00,56.6,42.9,29.91,NNW,340,11.5,11.5,60,0.00,CLR,,0.03,WeatherDisplay:10.37,2013-02-08 20:54:00,
2013-02-08 15:59:00,57.0,45.3,29.90,WNW,290,11.5,11.5,65,0.00,CLR,,0.02,WeatherDisplay:10.37,2013-02-08 20:59:00,
2013-02-08 16:04:00,56.3,42.1,29.91,WNW,294,11.5,11.5,59,0.00,CLR,,0.02,WeatherDisplay:10.37,2013-02-08 21:04:00,
2013-02-08 16:09:00,56.1,41.5,29.91,NW,310,8.1,8.1,58,0.00,CLR,,0.02,WeatherDisplay:10.37,2013-02-08 21:09:00,
2013-02-08 16:14:00,55.9,41.3,29.91,North,350,9.2,9.2,58,0.00,CLR,,0.02,WeatherDisplay:10.37,2013-02-08 21:14:00,
2013-02-08 16:19:00,56.3,42.1,29.91,NW,326,4.6,6.5,59,0.00,CLR,,0.03,WeatherDisplay:10.37,2013-02-08 21:19:00,
2013-02-08 16:24:00,55.9,41.3,29.92,WNW,303,3.5,3.5,58,0.00,CLR,,0.02,WeatherDisplay:10.37,2013-02-08 21:24:00,
2013-02-08 16:29:00,55.9,41.8,29.91,WNW,294,5.8,5.8,59,0.00,CLR,,0.03,WeatherDisplay:10.37,2013-02-08 21:29:00,
2013-02-08 16:34:00,56.6,41.5,29.92,North,9,6.9,6.9,57,0.00,CLR,,0.02,WeatherDisplay:10.37,2013-02-08 21:34:00,
2013-02-08 16:39:00,57.3,39.8,29.92,WNW,294,11.5,11.5,52,0.00,CLR,,0.02,WeatherDisplay:10.37,2013-02-08 21:39:00,
2013-02-08 16:44:00,57.4,39.4,29.92,NNW,327,8.1,8.1,51,0.00,CLR,,0.03,WeatherDisplay:10.37,2013-02-08 21:44:00,
2013-02-08 16:49:00,57.4,39.4,29.92,NNW,327,8.1,8.1,51,0.00,CLR,,0.03,WeatherDisplay:10.37,2013-02-08 21:49:00,
2013-02-08 16:54:00,57.4,39.4,29.92,NNW,327,8.1,8.1,51,0.00,CLR,,0.03,WeatherDisplay:10.37,2013-02-08 21:54:00,
2013-02-08 16:59:00,57.4,39.4,29.92,NNW,327,8.1,8.1,51,0.00,CLR,,0.03,WeatherDisplay:10.37,2013-02-08 21:59:00,
2013-02-08 17:04:00,57.6,38.6,29.93,West,276,6.9,6.9,49,0.00,CLR,,0.03,WeatherDisplay:10.37,2013-02-08 22:04:00,
2013-02-08 17:09:00,57.7,38.7,29.93,NW,309,8.1,8.6,49,0.00,CLR,,0.02,WeatherDisplay:10.37,2013-02-08 22:09:00,
2013-02-08 17:14:00,57.7,38.7,29.93,NW,309,8.1,8.6,49,0.00,CLR,,0.02,WeatherDisplay:10.37,2013-02-08 22:14:00,
2013-02-08 17:19:00,56.3,35.8,29.93,NW,309,12.7,12.7,46,0.00,CLR,,0.02,WeatherDisplay:10.37,2013-02-08 22:19:00,
2013-02-08 17:24:00,56.0,34.9,29.93,WNW,298,15.0,15.0,45,0.00,CLR,,0.02,WeatherDisplay:10.37,2013-02-08 22:24:00,
2013-02-08 17:29:00,55.7,34.7,29.93,NW,326,12.7,12.7,45,0.00,CLR,,0.02,WeatherDisplay:10.37,2013-02-08 22:29:00,
2013-02-08 17:34:00,55.6,34.6,29.94,NW,306,17.3,17.3,45,0.00,CLR,,0.03,WeatherDisplay:10.37,2013-02-08 22:34:00,
2013-02-08 17:39:00,55.2,34.8,29.94,NW,313,20.0,20.0,46,0.00,CLR,,0.02,WeatherDisplay:10.37,2013-02-08 22:39:00,
2013-02-08 17:44:00,55.0,34.6,29.95,WNW,290,17.3,17.3,46,0.00,CLR,,0.03,WeatherDisplay:10.37,2013-02-08 22:44:00,
2013-02-08 17:49:00,54.6,34.8,29.95,WNW,288,13.8,13.8,47,0.00,CLR,,0.03,WeatherDisplay:10.37,2013-02-08 22:49:00,
2013-02-08 17:54:00,54.3,35.5,29.95,WNW,294,11.5,11.5,49,0.00,CLR,,0.03,WeatherDisplay:10.37,2013-02-08 22:54:00,
2013-02-08 17:59:00,54.1,35.9,29.95,WNW,292,10.4,10.4,50,0.00,CLR,,0.03,WeatherDisplay:10.37,2013-02-08 22:59:00,
2013-02-08 18:04:00,53.5,34.8,29.95,WNW,292,11.5,11.5,49,0.00,CLR,,0.02,WeatherDisplay:10.37,2013-02-08 23:04:00,
2013-02-08 18:09:00,54.1,35.9,29.95,WNW,292,10.4,10.4,50,0.00,CLR,,0.03,WeatherDisplay:10.37,2013-02-08 23:09:00,
2013-02-08 18:14:00,53.1,33.9,29.96,WNW,294,12.7,12.7,48,0.00,CLR,,0.02,WeatherDisplay:10.37,2013-02-08 23:14:00,
2013-02-08 18:19:00,52.9,33.2,29.96,NW,305,13.8,13.8,47,0.00,CLR,,0.02,WeatherDisplay:10.37,2013-02-08 23:19:00,
2013-02-08 18:24:00,54.1,35.9,29.95,WNW,292,10.4,10.4,50,0.00,CLR,,0.03,WeatherDisplay:10.37,2013-02-08 23:24:00,
2013-02-08 18:29:00,54.1,35.9,29.95,WNW,292,10.4,10.4,50,0.00,CLR,,0.03,WeatherDisplay:10.37,2013-02-08 23:29:00,
2013-02-08 18:34:00,52.5,31.8,29.97,NW,306,11.5,11.5,45,0.00,CLR,,0.02,WeatherDisplay:10.37,2013-02-08 23:34:00,
2013-02-08 18:39:00,54.1,35.9,29.95,WNW,292,10.4,10.4,50,0.00,CLR,,0.03,WeatherDisplay:10.37,2013-02-08 23:39:00,
2013-02-08 18:44:00,52.0,31.3,29.98,NW,325,11.5,11.5,45,0.00,CLR,,0.02,WeatherDisplay:10.37,2013-02-08 23:44:00,
2013-02-08 18:49:00,54.1,35.9,29.95,WNW,292,10.4,10.4,50,0.00,CLR,,0.03,WeatherDisplay:10.37,2013-02-08 23:49:00,
2013-02-08 18:54:00,51.5,30.8,29.98,NW,317,10.4,10.4,45,0.00,CLR,,0.02,WeatherDisplay:10.37,2013-02-08 23:54:00,
2013-02-08 18:59:00,54.1,35.9,29.95,WNW,292,10.4,10.4,50,0.00,CLR,,0.03,WeatherDisplay:10.37,2013-02-08 23:59:00,
2013-02-08 19:04:00,51.3,31.2,29.99,NNW,346,11.5,11.5,46,0.00,CLR,,0.02,WeatherDisplay:10.37,2013-02-09 00:04:00,
2013-02-08 19:09:00,51.1,31.6,29.99,North,360,11.5,11.5,47,0.00,CLR,,0.03,WeatherDisplay:10.37,2013-02-09 00:09:00,
2013-02-08 19:14:00,50.8,31.8,30.00,North,9,13.8,13.8,48,0.00,CLR,,0.03,WeatherDisplay:10.37,2013-02-09 00:14:00,
2013-02-08 19:19:00,51.3,31.2,29.99,NNW,346,6.9,7.7,46,0.00,CLR,,0.02,WeatherDisplay:10.37,2013-02-09 00:19:00,
2013-02-08 19:24:00,50.7,31.7,30.00,NNW,335,15.0,15.0,48,0.00,CLR,,0.02,WeatherDisplay:10.37,2013-02-09 00:24:00,
2013-02-08 19:29:00,50.5,32.0,30.00,North,355,12.7,12.7,49,0.00,CLR,,0.02,WeatherDisplay:10.37,2013-02-09 00:29:00,
2013-02-08 19:34:00,50.7,31.7,30.00,North,9,8.1,12.0,48,0.00,CLR,,0.03,WeatherDisplay:10.37,2013-02-09 00:34:00,
2013-02-08 19:39:00,50.1,32.2,30.01,NNW,338,10.4,10.4,50,0.00,CLR,,0.02,WeatherDisplay:10.37,2013-02-09 00:39:00,
2013-02-08 19:44:00,50.7,31.7,30.00,North,9,8.1,12.0,48,0.00,CLR,,0.03,WeatherDisplay:10.37,2013-02-09 00:44:00,
2013-02-08 19:49:00,50.7,31.7,30.00,North,9,8.1,12.0,48,0.00,CLR,,0.03,WeatherDisplay:10.37,2013-02-09 00:49:00,
2013-02-08 19:54:00,49.0,32.1,30.02,North,5,12.0,12.0,52,0.00,CLR,,0.02,WeatherDisplay:10.37,2013-02-09 00:54:00,
2013-02-08 19:59:00,48.6,31.8,30.02,North,5,18.4,18.4,52,0.00,CLR,,0.02,WeatherDisplay:10.37,2013-02-09 00:59:00,
2013-02-08 20:04:00,50.7,31.7,30.00,North,9,8.1,12.0,48,0.00,CLR,,0.03,WeatherDisplay:10.37,2013-02-09 01:04:00,
2013-02-08 20:09:00,50.7,31.7,30.00,North,9,8.1,12.0,48,0.00,CLR,,0.03,WeatherDisplay:10.37,2013-02-09 01:09:00,
2013-02-08 20:14:00,50.7,31.7,30.00,North,9,8.1,12.0,48,0.00,CLR,,0.03,WeatherDisplay:10.37,2013-02-09 01:14:00,
2013-02-08 20:19:00,47.7,32.3,30.03,WNW,303,12.7,12.7,55,0.00,CLR,,0.02,WeatherDisplay:10.37,2013-02-09 01:19:00,
2013-02-08 20:24:00,47.4,32.0,30.03,NNW,341,11.5,11.5,55,0.00,CLR,,0.02,WeatherDisplay:10.37,2013-02-09 01:24:00,
2013-02-08 20:29:00,47.2,32.3,30.04,NW,326,10.4,10.4,56,0.00,CLR,,0.02,WeatherDisplay:10.37,2013-02-09 01:29:00,
2013-02-08 20:34:00,50.7,31.7,30.00,North,9,8.1,12.0,48,0.00,CLR,,0.03,WeatherDisplay:10.37,2013-02-09 01:34:00,
2013-02-08 20:39:00,46.6,31.7,30.04,NW,325,6.9,6.9,56,0.00,CLR,,0.02,WeatherDisplay:10.37,2013-02-09 01:39:00,
2013-02-08 20:44:00,46.4,31.5,30.05,NNW,337,5.8,7.2,56,0.00,CLR,,0.02,WeatherDisplay:10.37,2013-02-09 01:44:00,
2013-02-08 20:49:00,46.4,31.5,30.05,NNW,337,5.8,7.2,56,0.00,CLR,,0.02,WeatherDisplay:10.37,2013-02-09 01:49:00,
2013-02-08 20:54:00,45.9,31.1,30.06,North,351,11.5,11.5,56,0.00,CLR,,0.03,WeatherDisplay:10.37,2013-02-09 01:54:00,
2013-02-08 20:59:00,45.6,31.2,30.06,NW,321,10.4,10.4,57,0.00,CLR,,0.02,WeatherDisplay:10.37,2013-02-09 01:59:00,
2013-02-08 21:04:00,45.4,31.0,30.06,NNW,329,5.8,5.8,57,0.00,CLR,,0.02,WeatherDisplay:10.37,2013-02-09 02:04:00,
2013-02-08 21:09:00,45.4,31.0,30.06,NNW,329,5.8,5.8,57,0.00,CLR,,0.02,WeatherDisplay:10.37,2013-02-09 02:09:00,
2013-02-08 21:14:00,44.9,30.6,30.07,North,351,10.4,10.4,57,0.00,CLR,,0.02,WeatherDisplay:10.37,2013-02-09 02:14:00,
2013-02-08 21:19:00,44.5,30.6,30.08,North,349,6.9,6.9,58,0.00,CLR,,0.02,WeatherDisplay:10.37,2013-02-09 02:19:00,
2013-02-08 21:24:00,44.1,29.8,30.08,NNW,327,6.9,6.9,57,0.00,CLR,,0.03,WeatherDisplay:10.37,2013-02-09 02:24:00,
2013-02-08 21:29:00,43.8,30.0,30.08,North,349,6.9,6.9,58,0.00,CLR,,0.03,WeatherDisplay:10.37,2013-02-09 02:29:00,
2013-02-08 21:34:00,44.2,29.9,30.08,North,355,6.9,6.9,57,0.00,CLR,,0.02,WeatherDisplay:10.37,2013-02-09 02:34:00,
2013-02-08 21:39:00,43.5,29.7,30.09,NNW,337,4.6,4.6,58,0.00,CLR,,0.03,WeatherDisplay:10.37,2013-02-09 02:39:00,
2013-02-08 21:44:00,43.3,29.5,30.09,North,5,4.6,4.6,58,0.00,CLR,,0.03,WeatherDisplay:10.37,2013-02-09 02:44:00,
2013-02-08 21:49:00,43.1,29.7,30.09,NW,324,5.8,5.8,59,0.00,CLR,,0.02,WeatherDisplay:10.37,2013-02-09 02:49:00,
2013-02-08 21:54:00,43.3,29.5,30.09,North,5,4.6,4.6,58,0.00,CLR,,0.03,WeatherDisplay:10.37,2013-02-09 02:54:00,
2013-02-08 21:59:00,42.9,30.0,30.10,North,349,3.5,3.5,60,0.00,CLR,,0.02,WeatherDisplay:10.37,2013-02-09 02:59:00,
2013-02-08 22:04:00,42.6,29.7,30.10,North,5,0.0,0.0,60,0.00,CLR,,0.03,WeatherDisplay:10.37,2013-02-09 03:04:00,
2013-02-08 22:09:00,42.4,29.5,30.11,North,355,4.6,4.6,60,0.00,CLR,,0.03,WeatherDisplay:10.37,2013-02-09 03:09:00,
2013-02-08 22:14:00,42.9,30.0,30.10,North,349,3.5,3.5,60,0.00,CLR,,0.02,WeatherDisplay:10.37,2013-02-09 03:14:00,
2013-02-08 22:19:00,42.1,29.2,30.11,NNE,21,0.0,0.0,60,0.00,CLR,,0.03,WeatherDisplay:10.37,2013-02-09 03:19:00,
2013-02-08 22:24:00,42.0,28.7,30.11,NNE,15,3.5,3.5,59,0.00,CLR,,0.03,WeatherDisplay:10.37,2013-02-09 03:24:00,
2013-02-08 22:29:00,41.9,29.0,30.11,NNE,28,0.0,0.0,60,0.00,CLR,,0.03,WeatherDisplay:10.37,2013-02-09 03:29:00,
2013-02-08 22:34:00,42.9,30.0,30.10,North,349,3.5,3.5,60,0.00,CLR,,0.02,WeatherDisplay:10.37,2013-02-09 03:34:00,
2013-02-08 22:39:00,42.9,30.0,30.10,North,349,3.5,3.5,60,0.00,CLR,,0.02,WeatherDisplay:10.37,2013-02-09 03:39:00,
2013-02-08 22:44:00,41.4,28.5,30.11,SW,219,5.8,5.8,60,0.00,CLR,,0.03,WeatherDisplay:10.37,2013-02-09 03:44:00,
2013-02-08 22:49:00,41.3,28.4,30.11,SW,220,0.0,0.0,60,0.00,CLR,,0.03,WeatherDisplay:10.37,2013-02-09 03:49:00,
2013-02-08 22:54:00,41.0,28.6,30.11,SW,220,0.0,0.0,61,0.00,CLR,,0.03,WeatherDisplay:10.37,2013-02-09 03:54:00,
2013-02-08 22:59:00,41.0,28.6,30.11,SW,220,0.0,0.0,61,0.00,CLR,,0.03,WeatherDisplay:10.37,2013-02-09 03:59:00,
2013-02-08 23:04:00,41.0,28.6,30.11,SW,220,0.0,0.0,61,0.00,CLR,,0.03,WeatherDisplay:10.37,2013-02-09 04:04:00,
2013-02-08 23:09:00,40.4,28.4,30.12,SW,220,0.0,0.0,62,0.00,CLR,,0.03,WeatherDisplay:10.37,2013-02-09 04:09:00,
2013-02-08 23:14:00,40.4,28.4,30.11,SW,220,0.0,0.0,62,0.00,CLR,,0.02,WeatherDisplay:10.37,2013-02-09 04:14:00,
2013-02-08 23:19:00,39.8,28.6,30.12,SW,219,0.0,0.0,64,0.00,CLR,,0.03,WeatherDisplay:10.37,2013-02-09 04:19:00,
2013-02-08 23:24:00,39.3,28.5,30.12,SW,220,0.0,0.0,65,0.00,CLR,,0.03,WeatherDisplay:10.37,2013-02-09 04:24:00,
2013-02-08 23:29:00,39.1,28.3,30.11,SW,220,0.0,0.0,65,0.00,CLR,,0.03,WeatherDisplay:10.37,2013-02-09 04:29:00,
2013-02-08 23:34:00,38.8,28.0,30.12,SW,219,0.0,0.0,65,0.00,CLR,,0.03,WeatherDisplay:10.37,2013-02-09 04:34:00,
2013-02-08 23:39:00,38.6,27.8,30.12,SW,220,0.0,0.0,65,0.00,CLR,,0.02,WeatherDisplay:10.37,2013-02-09 04:39:00,
2013-02-08 23:44:00,38.8,28.0,30.12,SW,219,0.0,0.0,65,0.00,CLR,,0.03,WeatherDisplay:10.37,2013-02-09 04:44:00,
2013-02-08 23:49:00,38.3,27.9,30.12,SW,219,0.0,0.0,66,0.00,CLR,,0.02,WeatherDisplay:10.37,2013-02-09 04:49:00,
2013-02-08 23:54:00,38.1,27.7,30.12,SW,219,0.0,0.0,66,0.00,CLR,,0.03,WeatherDisplay:10.37,2013-02-09 04:54:00,
2013-02-08 23:59:00,38.3,27.9,30.12,SW,220,0.0,0.0,66,0.00,CLR,,0.02,WeatherDisplay:10.37,2013-02-09 04:59:00,